This demonstration page uses our WeatherBlox Daily Observations layout. Learn more.

40.92945, -100.16068

Hourly Observations for June 29, 2015

Temp ( °F °C ) Dew Point ( °F °C ) Humidity (%) Winds ( mph kmh ) Pressure ( in mb ) Visibility ( mi km ) Precip ( " mm )
12:15 am 00:15 Clear 62 16.6 56 13.6 83 83 Calm 29.97 1015 10 16.0934 N/A
12:35 am 00:35 Clear 63 17.2 58 14.3 83 83 Calm 29.97 1015 10 16.0934 N/A
12:55 am 00:55 Clear 63 17.2 57 13.9 81 81 W 3 6 29.97 1015 10 16.0934 N/A
1:15 am 01:15 Clear 61 16.3 57 13.9 86 86 Calm 30 1016 10 16.0934 N/A
1:35 am 01:35 Clear 61 16.1 56 13.6 85 85 Calm 30 1016 10 16.0934 N/A
1:55 am 01:55 Clear 58 14.5 55 12.6 88 88 Calm 30 1016 10 16.0934 N/A
2:15 am 02:15 Clear 59 14.9 56 13.2 90 90 NW 5 7 30 1016 10 16.0934 N/A
2:35 am 02:35 Clear 58 14.6 55 13 90 90 NW 3 6 30 1016 10 16.0934 N/A
2:55 am 02:55 Clear 58 14.2 55 12.8 91 91 NW 3 6 30 1016 10 16.0934 N/A
3:15 am 03:15 Clear 57 14.1 55 12.6 91 91 NW 5 7 30 1016 10 16.0934 N/A
3:35 am 03:35 Clear 57 13.9 55 12.5 91 91 NNW 5 7 30 1016 10 16.0934 N/A
3:55 am 03:55 Clear 57 13.7 55 12.5 93 93 WNW 5 7 30 1016 10 16.0934 N/A
4:15 am 04:15 Clear 56 13.5 54 12.4 93 93 WNW 5 7 30 1016 10 16.0934 N/A
4:35 am 04:35 Clear 56 13.6 55 12.5 93 93 WNW 5 7 30 1016 10 16.0934 N/A
4:55 am 04:55 Clear 56 13.6 54 12.3 92 92 NW 6 9 30 1016 10 16.0934 N/A
5:15 am 05:15 Clear 56 13.5 54 12.2 92 92 NW 6 9 30 1016 10 16.0934 N/A
5:35 am 05:35 Clear 56 13.5 54 12.2 92 92 WNW 5 7 30 1016 10 16.0934 N/A
5:55 am 05:55 Clear 56 13.3 54 12 92 92 NW 3 6 30.03 1017 10 16.0934 N/A
6:15 am 06:15 Sunny 55 13 53 11.7 92 92 WNW 3 6 30.03 1017 10 16.0934 N/A
6:35 am 06:35 Sunny 55 13 53 11.9 93 93 W 5 7 30.03 1017 7 11.26538 N/A
6:55 am 06:55 Sunny 57 14.1 55 13 93 93 WNW 7 11 30 1016 10 16.0934 N/A
7:15 am 07:15 Sunny 59 15.2 56 13.6 90 90 NW 5 7 30 1016 10 16.0934 N/A
7:35 am 07:35 Sunny 62 16.5 58 14.3 87 87 WNW 6 9 30.03 1017 7 11.26538 N/A
7:55 am 07:55 Sunny 63 17.4 58 14.3 82 82 WNW 5 7 30.03 1017 10 16.0934 N/A
8:15 am 08:15 Sunny 66 18.7 59 14.8 78 78 WNW 7 11 30 1016 10 16.0934 N/A
8:35 am 08:35 Sunny 68 20 60 15.6 76 76 WNW 6 9 30 1016 10 16.0934 N/A
8:55 am 08:55 Sunny 70 21.2 60 15.6 71 71 WNW 5 7 29.97 1015 10 16.0934 N/A
9:15 am 09:15 Sunny 73 22.5 59 15 63 63 W 3 6 29.97 1015 10 16.0934 N/A
9:35 am 09:35 Sunny 74 23.5 60 15.4 61 61 W 5 7 29.94 1014 10 16.0934 N/A
9:55 am 09:55 Sunny 76 24.4 60 15.6 58 58 W 3 6 29.91 1013 10 16.0934 N/A
10:15 am 10:15 Sunny 78 25.7 58 14.4 50 50 WNW 3 6 29.91 1013 10 16.0934 N/A
10:35 am 10:35 Sunny 80 26.5 58 14.7 48 48 W 7 11 29.94 1014 10 16.0934 N/A
10:55 am 10:55 Sunny 81 27.2 58 14.5 46 46 WNW 6 9 29.91 1013 10 16.0934 N/A
11:15 am 11:15 Sunny 83 28.6 58 14.2 41 41 W 6 9 29.88 1012 10 16.0934 N/A
11:35 am 11:35 Sunny 84 29.1 58 14.4 41 41 WNW 3 6 29.88 1012 7 11.26538 0.01 0.254
11:55 am 11:55 Sunny 85 29.2 57 14 39 39 NW 8 13 29.88 1012 10 16.0934 0.01 0.254
12:15 pm 12:15 Sunny 85 29.4 57 14 39 39 NNW 8 13 29.88 1012 10 16.0934 N/A
12:35 pm 12:35 Sunny 86 29.8 58 14.2 39 39 NW 8 13 29.88 1012 10 16.0934 N/A
12:55 pm 12:55 Sunny 87 30.5 58 14.2 37 37 NW 7 11 29.85 1011 10 16.0934 0 0
1:15 pm 13:15 Sunny 88 31.3 57 13.9 35 35 NNW 9 15 29.85 1011 10 16.0934 N/A
1:35 pm 13:35 Sunny 89 31.5 58 14.2 35 35 NNW 7 11 29.85 1011 10 16.0934 N/A
1:55 pm 13:55 Sunny 91 32.5 56 13.3 31 31 NW 9 15 29.85 1011 10 16.0934 N/A
2:15 pm 14:15 Sunny 90 32.4 55 13 31 31 WNW 8 13 29.85 1011 10 16.0934 N/A
2:35 pm 14:35 Sunny 92 33.1 56 13.1 30 30 NNW 13 20 29.85 1011 10 16.0934 N/A
2:55 pm 14:55 Sunny 92 33.3 56 13.5 30 30 N 12 19 29.85 1011 10 16.0934 N/A
3:15 pm 15:15 Sunny 92 33.5 55 12.5 28 28 N 8 13 29.85 1011 10 16.0934 N/A
3:35 pm 15:35 Sunny 93 33.9 54 12 26 26 N 13 20 29.85 1011 10 16.0934 N/A
3:55 pm 15:55 Sunny 93 33.8 53 11.7 26 26 NNW 10 17 29.85 1011 10 16.0934 N/A
4:15 pm 16:15 Sunny 93 33.9 54 12.1 26 26 N 9 15 29.83 1010 10 16.0934 N/A
4:35 pm 16:35 Sunny 93 33.8 52 11.3 25 25 NNW 7 11 29.83 1010 10 16.0934 N/A
4:55 pm 16:55 Sunny 93 34.1 53 11.6 25 25 NNE 6 9 29.83 1010 10 16.0934 N/A
5:15 pm 17:15 Sunny 93 33.7 54 12.2 27 27 NNE 8 13 29.83 1010 10 16.0934 N/A
5:35 pm 17:35 Sunny 92 33.6 53 11.6 26 26 NNE 6 9 29.83 1010 10 16.0934 N/A
5:55 pm 17:55 Sunny 93 33.8 54 12.1 27 27 NNE 7 11 29.83 1010 10 16.0934 N/A
6:15 pm 18:15 Sunny 92 33.5 54 12.3 27 27 NE 7 11 29.83 1010 10 16.0934 N/A
6:35 pm 18:35 Sunny 91 32.9 53 11.8 28 28 NE 7 11 29.83 1010 10 16.0934 N/A
6:55 pm 18:55 Sunny 91 33 55 13 30 30 NE 6 9 29.83 1010 10 16.0934 N/A
7:15 pm 19:15 Sunny 90 32.3 56 13.5 32 32 NE 5 7 29.83 1010 10 16.0934 N/A
7:35 pm 19:35 Sunny 89 31.9 57 14.1 34 34 NE 6 9 29.83 1010 10 16.0934 N/A
7:55 pm 19:55 Sunny 88 31.2 59 15 37 37 NE 5 7 29.83 1010 10 16.0934 N/A
8:15 pm 20:15 Sunny 86 30.2 62 16.6 44 44 ENE 5 7 29.85 1011 10 16.0934 N/A
8:35 pm 20:35 Sunny 84 29 63 17.2 49 49 ENE 5 7 29.85 1011 10 16.0934 N/A
8:55 pm 20:55 Sunny 81 27.4 64 18 57 57 E 5 7 29.85 1011 10 16.0934 N/A
9:15 pm 21:15 Clear 79 26.2 65 18.2 61 61 E 3 6 29.88 1012 10 16.0934 N/A
9:35 pm 21:35 Clear 78 25.7 65 18.3 64 64 Calm 29.88 1012 10 16.0934 N/A
9:55 pm 21:55 Clear 76 24.5 65 18.2 68 68 Calm 29.88 1012 10 16.0934 N/A
10:15 pm 22:15 Clear 75 24 64 17.7 68 68 Calm 29.88 1012 10 16.0934 N/A
10:35 pm 22:35 Clear 74 23.2 64 17.5 70 70 Calm 29.94 1014 10 16.0934 N/A
10:55 pm 22:55 Clear 72 22.2 63 17 73 73 S 3 6 29.94 1014 7 11.26538 N/A
11:15 pm 23:15 Clear 72 22.1 64 17.7 76 76 Calm 29.94 1014 7 11.26538 N/A
11:35 pm 23:35 Clear 69 20.7 63 17.3 81 81 Calm 29.94 1014 7 11.26538 N/A
11:55 pm 23:55 Clear 70 20.9 64 17.6 82 82 Calm 29.94 1014 7 11.26538 N/A

Powered by AerisWeather